This is the latest recevied weather packets stored in our database for station/object K0QJ. If no packets are shown the sender has not sent any weather packets the latest 10 day(s).
| Time | Temp. | Humidity | Pressure | Rain* | Wind** | Luminosity | Snow |
|---|---|---|---|---|---|---|---|
| 1777752781 | 18.33° C | 34% | 1018.5 hPa | 0 mm | - | 684 W/m² | - |
| 1777752477 | 17.22° C | 31% | 1018.7 hPa | 0 mm | - | 662 W/m² | - |
| 1777752173 | 17.78° C | 32% | 1018.7 hPa | 0 mm | - | 670 W/m² | - |
| 1777751872 | 17.78° C | 33% | 1018.8 hPa | 0 mm | - | 692 W/m² | - |
| 1777751568 | 17.22° C | 31% | 1018.7 hPa | 0 mm | - | 675 W/m² | - |
| 1777751264 | 17.22° C | 31% | 1018.8 hPa | 0 mm | - | 655 W/m² | - |
| 1777750962 | 17.22° C | 33% | 1019.1 hPa | 0 mm | - | 622 W/m² | - |
| 1777750657 | 18.33° C | 34% | 1019.1 hPa | 0 mm | - | 612 W/m² | - |
| 1777750355 | 18.33° C | 32% | 1018.9 hPa | 0 mm | - | 622 W/m² | - |
| 1777750054 | 18.33° C | 36% | 1019.2 hPa | 0 mm | - | 615 W/m² | - |
| 1777749753 | 18.33° C | 34% | 1018.9 hPa | 0 mm | - | 612 W/m² | - |
| 1777749449 | 17.22° C | 36% | 1019.3 hPa | 0 mm | - | 614 W/m² | - |
| 1777749147 | 16.67° C | 39% | 1019.3 hPa | 0 mm | - | 645 W/m² | - |
| 1777748844 | 17.22° C | 37% | 1019.4 hPa | 0 mm | - | 663 W/m² | - |
| 1777748541 | 16.11° C | 38% | 1019.4 hPa | 0 mm | - | 717 W/m² | - |
| 1777748241 | 17.78° C | 36% | 1019.6 hPa | 0 mm | - | 728 W/m² | - |
| 1777747938 | 17.22° C | 34% | 1019.6 hPa | 0 mm | - | 714 W/m² | - |
| 1777747634 | 17.22° C | 35% | 1019.7 hPa | 0 mm | - | 711 W/m² | - |
| 1777747330 | 17.78° C | 36% | 1019.9 hPa | 0 mm | - | 710 W/m² | - |
| 1777747027 | 16.67° C | 36% | 1019.7 hPa | 0 mm | - | 701 W/m² | - |
| 1777746723 | 16.11° C | 34% | 1019.9 hPa | 0 mm | - | 712 W/m² | - |
| 1777746418 | 16.11° C | 35% | 1019.8 hPa | 0 mm | - | 741 W/m² | - |
| 1777746113 | 16.67° C | 37% | 1020.1 hPa | 0 mm | - | 754 W/m² | - |
| 1777745811 | 16.67° C | 36% | 1020 hPa | 0 mm | - | 741 W/m² | - |
| 1777745510 | 16.11° C | 36% | 1020.1 hPa | 0 mm | - | 735 W/m² | - |
* Rain latest hour (hover to see other rain measurements)
** Current wind speed in m/s (hover to see current wind gust speed)